| time (UTC) | temp C | wind direction | speed KPH | gust KPH | rain 1hr cm | rain 24hr cm | rain mn cm | humidity % | barometer mb |
| 20260507192530 | 16 | 78 | 1.6 | 4.8 | 0.00 | 0.00 | 0.00 | 62 | 1019.7 |
| 20260507192032 | 16 | 78 | 1.6 | 4.8 | 0.00 | 0.00 | 0.00 | 62 | 1019.7 |
| 20260507191550 | 16 | 0 | 0.0 | 1.6 | 0.00 | 0.00 | 0.00 | 62 | 1019.7 |
| 20260507191030 | 16 | 0 | 0.0 | 1.6 | 0.00 | 0.00 | 0.00 | 61 | 1019.6 |
| 20260507190532 | 16 | 0 | 0.0 | 0.0 | 0.00 | 0.00 | 0.00 | 61 | 1019.7 |
| 20260507190043 | 17 | 0 | 0.0 | 3.2 | 0.00 | 0.00 | 0.00 | 60 | 1019.7 |
| 20260507185531 | 17 | 0 | 0.0 | 3.2 | 0.00 | 0.00 | 0.00 | 60 | 1019.7 |
| 20260507185032 | 17 | 0 | 0.0 | 0.0 | 0.00 | 0.00 | 0.00 | 60 | 1019.5 |
| 20260507184541 | 17 | 0 | 0.0 | 1.6 | 0.00 | 0.00 | 0.00 | 60 | 1019.4 |
| 20260507184030 | 17 | 0 | 0.0 | 1.6 | 0.00 | 0.00 | 0.00 | 59 | 1019.4 |
| 20260507183530 | 17 | 0 | 0.0 | 0.0 | 0.00 | 0.00 | 0.00 | 59 | 1019.4 |
| 20260507183041 | 18 | 0 | 0.0 | 0.0 | 0.00 | 0.00 | 0.00 | 59 | 1019.4 |
| 20260507182529 | 18 | 0 | 0.0 | 3.2 | 0.00 | 0.00 | 0.00 | 58 | 1019.2 |
| 20260507182030 | 18 | 0 | 0.0 | 3.2 | 0.00 | 0.00 | 0.00 | 57 | 1019.3 |
| 20260507181540 | 18 | 0 | 0.0 | 3.2 | 0.00 | 0.00 | 0.00 | 58 | 1019.3 |
| 20260507181033 | 18 | 0 | 0.0 | 1.6 | 0.00 | 0.00 | 0.00 | 56 | 1019.2 |
| 20260507180530 | 18 | 0 | 0.0 | 3.2 | 0.00 | 0.00 | 0.00 | 57 | 1019.1 |
| 20260507180048 | 18 | 0 | 0.0 | 4.8 | 0.00 | 0.00 | 0.00 | 57 | 1019.2 |
| 20260507175532 | 18 | 78 | 1.6 | 4.8 | 0.00 | 0.00 | 0.00 | 56 | 1019.0 |
| 20260507175030 | 19 | 78 | 0.0 | 3.2 | 0.00 | 0.00 | 0.00 | 56 | 1019.1 |
| 20260507174543 | 19 | 0 | 0.0 | 6.4 | 0.00 | 0.00 | 0.00 | 55 | 1019.1 |
| 20260507174030 | 19 | 0 | 0.0 | 6.4 | 0.00 | 0.00 | 0.00 | 55 | 1018.9 |
| 20260507173531 | 19 | 77 | 0.0 | 6.4 | 0.00 | 0.00 | 0.00 | 55 | 1018.9 |
| 20260507173043 | 19 | 88 | 3.2 | 8.0 | 0.00 | 0.00 | 0.00 | 55 | 1018.9 |
| 20260507172531 | 19 | 76 | 4.8 | 8.0 | 0.00 | 0.00 | 0.00 | 54 | 1018.8 |
| 20260507172030 | 19 | 49 | 3.2 | 6.4 | 0.00 | 0.00 | 0.00 | 55 | 1018.8 |
| 20260507171542 | 19 | 55 | 1.6 | 6.4 | 0.00 | 0.00 | 0.00 | 54 | 1018.7 |
| 20260507171029 | 20 | 69 | 1.6 | 4.8 | 0.00 | 0.00 | 0.00 | 53 | 1018.6 |
| 20260507170529 | 20 | 67 | 3.2 | 8.0 | 0.00 | 0.00 | 0.00 | 51 | 1018.5 |
| 20260507170042 | 20 | 67 | 3.2 | 8.0 | 0.00 | 0.00 | 0.00 | 52 | 1018.5 |
| 20260507165534 | 20 | 67 | 3.2 | 6.4 | 0.00 | 0.00 | 0.00 | 52 | 1018.5 |
| 20260507165031 | 20 | 71 | 3.2 | 6.4 | 0.00 | 0.00 | 0.00 | 51 | 1018.5 |
| 20260507164547 | 20 | 0 | 1.6 | 4.8 | 0.00 | 0.00 | 0.00 | 50 | 1018.5 |
| 20260507164029 | 20 | 0 | 1.6 | 4.8 | 0.00 | 0.00 | 0.00 | 51 | 1018.6 |
| 20260507163529 | 20 | 63 | 1.6 | 4.8 | 0.00 | 0.00 | 0.00 | 51 | 1018.6 |
| 20260507163046 | 20 | 57 | 0.0 | 4.8 | 0.00 | 0.00 | 0.00 | 52 | 1018.6 |
| 20260507162534 | 20 | 0 | 1.6 | 4.8 | 0.00 | 0.00 | 0.00 | 52 | 1018.6 |
| 20260507162032 | 20 | 0 | 0.0 | 3.2 | 0.00 | 0.00 | 0.00 | 52 | 1018.6 |
| 20260507161545 | 20 | 0 | 0.0 | 3.2 | 0.00 | 0.00 | 0.00 | 51 | 1018.6 |
| 20260507161029 | 20 | 57 | 0.0 | 4.8 | 0.00 | 0.00 | 0.00 | 51 | 1018.6 |
| 20260507160531 | 21 | 0 | 0.0 | 4.8 | 0.00 | 0.00 | 0.00 | 51 | 1018.5 |
| 20260507160045 | 21 | 66 | 0.0 | 4.8 | 0.00 | 0.00 | 0.00 | 50 | 1018.7 |
| 20260507155529 | 21 | 0 | 0.0 | 6.4 | 0.00 | 0.00 | 0.00 | 50 | 1018.6 |
| 20260507155031 | 21 | 64 | 1.6 | 6.4 | 0.00 | 0.00 | 0.00 | 50 | 1018.6 |
| 20260507154544 | 22 | 0 | 0.0 | 4.8 | 0.00 | 0.00 | 0.00 | 49 | 1018.7 |
| 20260507154032 | 22 | 22 | 0.0 | 4.8 | 0.00 | 0.00 | 0.00 | 47 | 1018.8 |
| 20260507153530 | 22 | 0 | 0.0 | 4.8 | 0.00 | 0.00 | 0.00 | 45 | 1018.8 |
| 20260507153041 | 23 | 22 | 0.0 | 3.2 | 0.00 | 0.00 | 0.00 | 44 | 1018.8 |
| 20260507152530 | 23 | 349 | 1.6 | 3.2 | 0.00 | 0.00 | 0.00 | 43 | 1018.7 |
| 20260507152031 | 23 | 0 | 0.0 | 0.0 | 0.00 | 0.00 | 0.00 | 44 | 1018.8 |
| 20260507151547 | 23 | 0 | 0.0 | 4.8 | 0.00 | 0.00 | 0.00 | 43 | 1018.7 |
| 20260507151030 | 23 | 0 | 0.0 | 4.8 | 0.00 | 0.00 | 0.00 | 42 | 1018.9 |
| 20260507150531 | 23 | 351 | 0.0 | 6.4 | 0.00 | 0.00 | 0.00 | 44 | 1018.8 |
| 20260507150045 | 23 | 0 | 0.0 | 6.4 | 0.00 | 0.00 | 0.00 | 45 | 1018.9 |
| 20260507145531 | 23 | 331 | 1.6 | 8.0 | 0.00 | 0.00 | 0.00 | 44 | 1018.9 |
| 20260507145030 | 23 | 349 | 3.2 | 8.0 | 0.00 | 0.00 | 0.00 | 44 | 1019.1 |
| 20260507144542 | 23 | 289 | 1.6 | 6.4 | 0.00 | 0.00 | 0.00 | 45 | 1019.1 |
| 20260507144030 | 24 | 300 | 3.2 | 8.0 | 0.00 | 0.00 | 0.00 | 43 | 1019.1 |
| 20260507143530 | 24 | 324 | 3.2 | 8.0 | 0.00 | 0.00 | 0.00 | 42 | 1019.2 |
| 20260507143043 | 24 | 328 | 3.2 | 8.0 | 0.00 | 0.00 | 0.00 | 44 | 1019.2 |
| 20260507142530 | 23 | 339 | 1.6 | 6.4 | 0.00 | 0.00 | 0.00 | 47 | 1019.2 |
| 20260507142030 | 23 | 232 | 1.6 | 6.4 | 0.00 | 0.00 | 0.00 | 47 | 1019.3 |
| 20260507141539 | 23 | 0 | 0.0 | 6.4 | 0.00 | 0.00 | 0.00 | 47 | 1019.3 |
| 20260507141030 | 23 | 22 | 1.6 | 6.4 | 0.00 | 0.00 | 0.00 | 46 | 1019.2 |
| 20260507140529 | 23 | 0 | 1.6 | 6.4 | 0.00 | 0.00 | 0.00 | 46 | 1019.3 |
| 20260507140101 | 23 | 346 | 0.0 | 6.4 | 0.00 | 0.00 | 0.00 | 48 | 1019.3 |
| 20260507135530 | 23 | 5 | 1.6 | 6.4 | 0.00 | 0.00 | 0.00 | 48 | 1019.1 |
| 20260507135030 | 23 | 360 | 1.6 | 4.8 | 0.00 | 0.00 | 0.00 | 49 | 1019.1 |
| 20260507134546 | 23 | 332 | 1.6 | 6.4 | 0.00 | 0.00 | 0.00 | 49 | 1019.1 |
| 20260507134032 | 23 | 333 | 1.6 | 6.4 | 0.00 | 0.00 | 0.00 | 50 | 1019.2 |
| 20260507133530 | 23 | 0 | 0.0 | 6.4 | 0.00 | 0.00 | 0.00 | 49 | 1019.3 |
| 20260507133043 | 23 | 223 | 3.2 | 9.7 | 0.00 | 0.00 | 0.00 | 45 | 1019.4 |
| 20260507132529 | 23 | 244 | 4.8 | 9.7 | 0.00 | 0.00 | 0.00 | 46 | 1019.3 |
| 20260507132029 | 23 | 234 | 1.6 | 6.4 | 0.00 | 0.00 | 0.00 | 51 | 1019.5 |
| 20260507131546 | 22 | 5 | 0.0 | 3.2 | 0.00 | 0.00 | 0.00 | 54 | 1019.5 |
| 20260507131030 | 22 | 0 | 0.0 | 4.8 | 0.00 | 0.00 | 0.00 | 56 | 1019.5 |
| 20260507130531 | 22 | 0 | 1.6 | 4.8 | 0.00 | 0.00 | 0.00 | 57 | 1019.5 |
| 20260507130042 | 21 | 42 | 0.0 | 4.8 | 0.00 | 0.00 | 0.00 | 59 | 1019.5 |
| 20260507125531 | 21 | 39 | 0.0 | 6.4 | 0.00 | 0.00 | 0.00 | 60 | 1019.3 |
| 20260507125030 | 21 | 53 | 1.6 | 6.4 | 0.00 | 0.00 | 0.00 | 61 | 1019.3 |
| 20260507124540 | 21 | 43 | 3.2 | 9.7 | 0.00 | 0.00 | 0.00 | 61 | 1019.4 |
| 20260507124030 | 21 | 31 | 3.2 | 9.7 | 0.00 | 0.00 | 0.00 | 62 | 1019.3 |
| 20260507123734 | 20 | 36 | 4.8 | 9.7 | 0.00 | 0.00 | 0.00 | 62 | 1019.2 |
| 20260507115033 | 21 | 44 | 4.8 | 14.5 | 0.00 | 0.00 | 0.00 | 59 | 1019.3 |
| 20260507114542 | 21 | 17 | 6.4 | 14.5 | 0.00 | 0.00 | 0.00 | 58 | 1019.2 |
| 20260507114029 | 21 | 10 | 6.4 | 12.9 | 0.00 | 0.00 | 0.00 | 58 | 1019.3 |
| 20260507113531 | 21 | 63 | 6.4 | 17.7 | 0.00 | 0.00 | 0.00 | 58 | 1019.2 |
| 20260507113042 | 21 | 49 | 6.4 | 17.7 | 0.00 | 0.00 | 0.00 | 58 | 1019.3 |
| 20260507112533 | 21 | 339 | 8.0 | 17.7 | 0.00 | 0.00 | 0.00 | 57 | 1019.4 |
| 20260507112032 | 22 | 0 | 6.4 | 14.5 | 0.00 | 0.00 | 0.00 | 59 | 1019.3 |
| 20260507111545 | 22 | 46 | 6.4 | 16.1 | 0.00 | 0.00 | 0.00 | 58 | 1019.3 |
| 20260507111030 | 21 | 56 | 9.7 | 16.1 | 0.00 | 0.00 | 0.00 | 57 | 1019.2 |
| 20260507110529 | 21 | 69 | 8.0 | 16.1 | 0.00 | 0.00 | 0.00 | 58 | 1019.3 |
| 20260507110051 | 21 | 34 | 8.0 | 17.7 | 0.00 | 0.00 | 0.00 | 59 | 1019.4 |
| 20260507105529 | 21 | 35 | 6.4 | 17.7 | 0.00 | 0.00 | 0.00 | 58 | 1019.3 |
| 20260507105031 | 21 | 38 | 4.8 | 14.5 | 0.00 | 0.00 | 0.00 | 60 | 1019.3 |
| 20260507104546 | 21 | 73 | 6.4 | 14.5 | 0.00 | 0.00 | 0.00 | 60 | 1019.3 |
| 20260507104030 | 21 | 67 | 4.8 | 14.5 | 0.00 | 0.00 | 0.00 | 60 | 1019.3 |
| 20260507103529 | 21 | 59 | 6.4 | 14.5 | 0.00 | 0.00 | 0.00 | 61 | 1019.3 |
| 20260507103043 | 21 | 40 | 3.2 | 14.5 | 0.00 | 0.00 | 0.00 | 61 | 1019.4 |
| 20260507102530 | 21 | 83 | 6.4 | 14.5 | 0.00 | 0.00 | 0.00 | 61 | 1019.3 |
| 20260507102029 | 21 | 63 | 6.4 | 16.1 | 0.00 | 0.00 | 0.00 | 60 | 1019.2 |
| 20260507101558 | 21 | 98 | 8.0 | 16.1 | 0.00 | 0.00 | 0.00 | 60 | 1019.2 |
| 20260507101030 | 21 | 57 | 8.0 | 16.1 | 0.00 | 0.00 | 0.00 | 60 | 1019.3 |
| 20260507100529 | 21 | 76 | 6.4 | 17.7 | 0.00 | 0.00 | 0.00 | 61 | 1019.3 |
| 20260507100047 | 21 | 27 | 8.0 | 17.7 | 0.00 | 0.00 | 0.00 | 60 | 1019.3 |
| 20260507095532 | 21 | 54 | 8.0 | 16.1 | 0.00 | 0.00 | 0.00 | 60 | 1019.2 |
| 20260507095030 | 21 | 5 | 8.0 | 16.1 | 0.00 | 0.00 | 0.00 | 59 | 1019.3 |
| 20260507094556 | 21 | 53 | 4.8 | 17.7 | 0.00 | 0.00 | 0.00 | 60 | 1019.2 |
| 20260507094031 | 21 | 71 | 8.0 | 17.7 | 0.00 | 0.00 | 0.00 | 58 | 1019.2 |
| 20260507093531 | 21 | 50 | 9.7 | 17.7 | 0.00 | 0.00 | 0.00 | 57 | 1019.2 |
| 20260507093046 | 21 | 74 | 6.4 | 17.7 | 0.00 | 0.00 | 0.00 | 58 | 1019.2 |
| 20260507092534 | 21 | 35 | 9.7 | 17.7 | 0.00 | 0.00 | 0.00 | 58 | 1019.2 |
| 20260507092029 | 21 | 32 | 6.4 | 16.1 | 0.00 | 0.00 | 0.00 | 60 | 1019.1 |
| 20260507091558 | 21 | 24 | 4.8 | 16.1 | 0.00 | 0.00 | 0.00 | 62 | 1019.2 |
| 20260507091029 | 21 | 34 | 8.0 | 16.1 | 0.00 | 0.00 | 0.00 | 62 | 1019.1 |
| 20260507090533 | 21 | 50 | 8.0 | 19.3 | 0.00 | 0.00 | 0.00 | 63 | 1019.2 |
| 20260507090105 | 20 | 42 | 9.7 | 19.3 | 0.00 | 0.00 | 0.00 | 63 | 1019.3 |
| 20260507085529 | 20 | 36 | 8.0 | 19.3 | 0.00 | 0.00 | 0.00 | 64 | 1019.4 |
| 20260507085030 | 20 | 44 | 9.7 | 19.3 | 0.00 | 0.00 | 0.00 | 64 | 1019.3 |
| 20260507084541 | 20 | 56 | 8.0 | 17.7 | 0.00 | 0.00 | 0.00 | 66 | 1019.4 |
| 20260507084030 | 20 | 34 | 9.7 | 17.7 | 0.00 | 0.00 | 0.00 | 68 | 1019.5 |
| 20260507083529 | 19 | 43 | 8.0 | 20.9 | 0.00 | 0.00 | 0.00 | 68 | 1019.4 |
| 20260507083047 | 19 | 57 | 9.7 | 20.9 | 0.00 | 0.00 | 0.00 | 68 | 1019.5 |
| 20260507082528 | 19 | 61 | 11.3 | 20.9 | 0.00 | 0.00 | 0.00 | 68 | 1019.4 |
| 20260507082030 | 19 | 55 | 11.3 | 19.3 | 0.00 | 0.00 | 0.00 | 68 | 1019.4 |
| 20260507081554 | 19 | 30 | 12.9 | 20.9 | 0.00 | 0.00 | 0.00 | 67 | 1019.3 |
| 20260507081030 | 19 | 45 | 9.7 | 20.9 | 0.00 | 0.00 | 0.00 | 68 | 1019.3 |
| 20260507080529 | 19 | 21 | 9.7 | 22.5 | 0.00 | 0.00 | 0.00 | 69 | 1019.2 |
| 20260507080051 | 19 | 57 | 9.7 | 22.5 | 0.00 | 0.00 | 0.00 | 70 | 1019.2 |
| 20260507075530 | 19 | 14 | 9.7 | 19.3 | 0.00 | 0.00 | 0.00 | 71 | 1019.2 |
| 20260507075031 | 18 | 75 | 9.7 | 22.5 | 0.00 | 0.00 | 0.00 | 71 | 1019.2 |
| 20260507074544 | 18 | 47 | 9.7 | 24.1 | 0.00 | 0.00 | 0.00 | 71 | 1019.2 |
| 20260507074031 | 18 | 43 | 9.7 | 24.1 | 0.00 | 0.00 | 0.00 | 69 | 1019.3 |
| 20260507073530 | 18 | 10 | 12.9 | 24.1 | 0.00 | 0.00 | 0.00 | 68 | 1019.2 |
| 20260507073058 | 18 | 51 | 9.7 | 22.5 | 0.00 | 0.00 | 0.00 | 68 | 1019.2 |
| 20260507072529 | 18 | 26 | 12.9 | 20.9 | 0.00 | 0.00 | 0.00 | 67 | 1019.2 |
| 20260507072029 | 18 | 67 | 11.3 | 20.9 | 0.00 | 0.00 | 0.00 | 67 | 1019.1 |
| 20260507071546 | 18 | 54 | 12.9 | 20.9 | 0.00 | 0.00 | 0.00 | 67 | 1019.2 |
| 20260507071030 | 19 | 52 | 11.3 | 19.3 | 0.00 | 0.00 | 0.00 | 67 | 1019.2 |
| 20260507070530 | 19 | 42 | 9.7 | 19.3 | 0.00 | 0.00 | 0.00 | 69 | 1019.2 |
| 20260507070121 | 19 | 22 | 8.0 | 17.7 | 0.00 | 0.00 | 0.00 | 70 | 1019.2 |
| 20260507065529 | 19 | 25 | 9.7 | 17.7 | 0.00 | 0.00 | 0.00 | 71 | 1019.1 |
| 20260507065029 | 18 | 48 | 9.7 | 22.5 | 0.00 | 0.00 | 0.00 | 72 | 1019.3 |
| 20260507064549 | 18 | 22 | 8.0 | 22.5 | 0.00 | 0.00 | 0.00 | 72 | 1019.2 |
| 20260507064030 | 18 | 34 | 9.7 | 19.3 | 0.00 | 0.00 | 0.00 | 72 | 1019.2 |
| 20260507063530 | 18 | 48 | 11.3 | 19.3 | 0.00 | 0.00 | 0.00 | 72 | 1019.3 |
| 20260507063041 | 18 | 36 | 8.0 | 17.7 | 0.00 | 0.00 | 0.00 | 73 | 1019.2 |
| 20260507062531 | 18 | 47 | 8.0 | 19.3 | 0.00 | 0.00 | 0.00 | 74 | 1019.2 |
| 20260507062029 | 18 | 29 | 8.0 | 19.3 | 0.00 | 0.00 | 0.00 | 74 | 1019.2 |
| 20260507061542 | 18 | 68 | 8.0 | 17.7 | 0.00 | 0.00 | 0.00 | 74 | 1019.2 |
| 20260507061029 | 18 | 69 | 6.4 | 19.3 | 0.00 | 0.00 | 0.00 | 75 | 1019.2 |
| 20260507060529 | 18 | 69 | 6.4 | 19.3 | 0.00 | 0.00 | 0.00 | 74 | 1019.2 |
| 20260507060040 | 17 | 32 | 9.7 | 19.3 | 0.00 | 0.00 | 0.00 | 74 | 1019.3 |
| 20260507055530 | 17 | 44 | 8.0 | 19.3 | 0.00 | 0.00 | 0.00 | 74 | 1019.2 |
| 20260507055031 | 17 | 50 | 8.0 | 19.3 | 0.00 | 0.00 | 0.00 | 74 | 1019.2 |
| 20260507054552 | 17 | 53 | 9.7 | 19.3 | 0.00 | 0.00 | 0.00 | 74 | 1019.2 |
| 20260507054030 | 17 | 25 | 6.4 | 19.3 | 0.00 | 0.00 | 0.00 | 75 | 1019.2 |
| 20260507053530 | 17 | 57 | 9.7 | 19.3 | 0.00 | 0.00 | 0.00 | 75 | 1019.0 |
| 20260507053044 | 17 | 46 | 9.7 | 17.7 | 0.00 | 0.00 | 0.00 | 76 | 1019.0 |
| 20260507052529 | 17 | 37 | 8.0 | 17.7 | 0.00 | 0.00 | 0.00 | 77 | 1019.1 |
| 20260507052030 | 17 | 61 | 9.7 | 17.7 | 0.00 | 0.00 | 0.00 | 77 | 1019.0 |
| 20260507051545 | 17 | 43 | 8.0 | 16.1 | 0.00 | 0.00 | 0.00 | 77 | 1019.0 |
| 20260507051029 | 17 | 74 | 6.4 | 16.1 | 0.00 | 0.00 | 0.00 | 77 | 1018.9 |
| 20260507050529 | 16 | 34 | 6.4 | 14.5 | 0.00 | 0.00 | 0.00 | 77 | 1018.9 |
| 20260507050043 | 16 | 49 | 4.8 | 14.5 | 0.00 | 0.00 | 0.00 | 77 | 1018.8 |
| 20260507045533 | 16 | 67 | 6.4 | 14.5 | 0.00 | 0.00 | 0.00 | 76 | 1018.8 |
| 20260507045034 | 16 | 35 | 4.8 | 14.5 | 0.00 | 0.00 | 0.00 | 76 | 1018.7 |
| 20260507044546 | 16 | 49 | 4.8 | 14.5 | 0.00 | 0.00 | 0.00 | 76 | 1018.7 |
| 20260507044029 | 16 | 26 | 6.4 | 14.5 | 0.00 | 0.00 | 0.00 | 76 | 1018.7 |
| 20260507043530 | 15 | 23 | 6.4 | 12.9 | 0.00 | 0.00 | 0.00 | 77 | 1018.8 |
| 20260507043047 | 15 | 51 | 6.4 | 12.9 | 0.00 | 0.00 | 0.00 | 78 | 1018.6 |
| 20260507042530 | 15 | 64 | 3.2 | 12.9 | 0.00 | 0.00 | 0.00 | 80 | 1018.6 |
| 20260507042030 | 15 | 53 | 4.8 | 12.9 | 0.00 | 0.00 | 0.00 | 80 | 1018.6 |
| 20260507041547 | 14 | 62 | 6.4 | 12.9 | 0.00 | 0.00 | 0.00 | 81 | 1018.5 |
| 20260507041030 | 14 | 56 | 4.8 | 12.9 | 0.00 | 0.00 | 0.00 | 81 | 1018.5 |
| 20260507040528 | 13 | 63 | 3.2 | 11.3 | 0.00 | 0.00 | 0.00 | 81 | 1018.3 |
| 20260507040049 | 13 | 55 | 4.8 | 11.3 | 0.00 | 0.00 | 0.00 | 81 | 1018.4 |
| 20260507035529 | 13 | 57 | 4.8 | 11.3 | 0.00 | 0.00 | 0.00 | 81 | 1018.2 |
| 20260507035030 | 13 | 92 | 4.8 | 11.3 | 0.00 | 0.00 | 0.00 | 80 | 1018.1 |
| 20260507034546 | 13 | 53 | 6.4 | 11.3 | 0.00 | 0.00 | 0.00 | 81 | 1018.0 |
| 20260507034029 | 12 | 76 | 4.8 | 8.0 | 0.00 | 0.00 | 0.00 | 81 | 1018.0 |
| 20260507033529 | 12 | 55 | 3.2 | 8.0 | 0.00 | 0.00 | 0.00 | 81 | 1017.8 |
| 20260507033041 | 12 | 63 | 4.8 | 8.0 | 0.00 | 0.00 | 0.00 | 81 | 1017.8 |
| 20260507032530 | 12 | 72 | 4.8 | 8.0 | 0.00 | 0.00 | 0.00 | 82 | 1017.7 |
| 20260507032029 | 12 | 69 | 3.2 | 9.7 | 0.00 | 0.00 | 0.00 | 82 | 1017.7 |
| 20260507031546 | 12 | 71 | 3.2 | 11.3 | 0.00 | 0.00 | 0.00 | 82 | 1017.7 |
| 20260507031034 | 12 | 63 | 3.2 | 11.3 | 0.00 | 0.00 | 0.00 | 83 | 1017.6 |
| 20260507030530 | 12 | 60 | 4.8 | 11.3 | 0.00 | 0.00 | 0.00 | 84 | 1017.6 |
| 20260507030058 | 12 | 75 | 3.2 | 6.4 | 0.00 | 0.00 | 0.00 | 83 | 1017.5 |
| 20260507025530 | 12 | 76 | 1.6 | 6.4 | 0.00 | 0.00 | 0.00 | 83 | 1017.5 |
| 20260507025030 | 13 | 76 | 4.8 | 6.4 | 0.00 | 0.00 | 0.00 | 83 | 1017.5 |
| 20260507024545 | 13 | 80 | 3.2 | 9.7 | 0.00 | 0.00 | 0.00 | 83 | 1017.4 |
| 20260507024030 | 13 | 0 | 3.2 | 9.7 | 0.00 | 0.00 | 0.00 | 84 | 1017.3 |
| 20260507023533 | 13 | 82 | 3.2 | 8.0 | 0.00 | 0.00 | 0.00 | 85 | 1017.4 |
| 20260507023043 | 13 | 0 | 1.6 | 8.0 | 0.00 | 0.00 | 0.00 | 85 | 1017.4 |
| 20260507022530 | 13 | 66 | 4.8 | 8.0 | 0.00 | 0.00 | 0.00 | 85 | 1017.3 |
| 20260507022030 | 13 | 83 | 3.2 | 8.0 | 0.00 | 0.00 | 0.00 | 84 | 1017.4 |
| 20260507021542 | 13 | 83 | 3.2 | 8.0 | 0.00 | 0.00 | 0.00 | 84 | 1017.3 |
| 20260507021030 | 13 | 78 | 3.2 | 6.4 | 0.00 | 0.00 | 0.00 | 83 | 1017.3 |
| 20260507020529 | 13 | 0 | 1.6 | 6.4 | 0.00 | 0.00 | 0.00 | 82 | 1017.3 |
| 20260507020050 | 13 | 82 | 3.2 | 6.4 | 0.00 | 0.00 | 0.00 | 81 | 1017.5 |
| 20260507015531 | 13 | 86 | 1.6 | 6.4 | 0.00 | 0.00 | 0.00 | 80 | 1017.4 |
| 20260507015031 | 13 | 78 | 3.2 | 6.4 | 0.00 | 0.00 | 0.00 | 80 | 1017.3 |
| 20260507014553 | 13 | 0 | 1.6 | 8.0 | 0.00 | 0.00 | 0.00 | 80 | 1017.3 |
| 20260507014030 | 13 | 68 | 3.2 | 8.0 | 0.00 | 0.00 | 0.00 | 80 | 1017.3 |
| 20260507013529 | 13 | 65 | 4.8 | 8.0 | 0.00 | 0.00 | 0.00 | 80 | 1017.3 |
| 20260507013039 | 13 | 55 | 3.2 | 8.0 | 0.00 | 0.00 | 0.00 | 80 | 1017.3 |
| 20260507012530 | 13 | 66 | 3.2 | 8.0 | 0.00 | 0.00 | 0.00 | 81 | 1017.3 |
| 20260507012031 | 13 | 53 | 1.6 | 8.0 | 0.00 | 0.00 | 0.00 | 81 | 1017.1 |
| 20260507011545 | 13 | 71 | 3.2 | 8.0 | 0.00 | 0.00 | 0.00 | 81 | 1017.3 |
| 20260507011029 | 13 | 63 | 3.2 | 9.7 | 0.00 | 0.00 | 0.00 | 81 | 1017.2 |
| 20260507010533 | 13 | 68 | 4.8 | 9.7 | 0.00 | 0.00 | 0.00 | 80 | 1017.2 |
| 20260507010059 | 13 | 58 | 4.8 | 8.0 | 0.00 | 0.00 | 0.00 | 80 | 1017.3 |
| 20260507005530 | 13 | 41 | 3.2 | 8.0 | 0.00 | 0.00 | 0.00 | 79 | 1017.2 |
| 20260507005029 | 13 | 52 | 3.2 | 8.0 | 0.00 | 0.00 | 0.00 | 77 | 1017.3 |
| 20260507004544 | 13 | 68 | 3.2 | 8.0 | 0.00 | 0.00 | 0.00 | 75 | 1017.3 |
| 20260507004030 | 13 | 51 | 4.8 | 8.0 | 0.00 | 0.00 | 0.00 | 75 | 1017.3 |
| 20260507003530 | 13 | 67 | 3.2 | 8.0 | 0.00 | 0.00 | 0.00 | 76 | 1017.2 |
| 20260507003042 | 13 | 55 | 3.2 | 11.3 | 0.00 | 0.00 | 0.00 | 77 | 1017.2 |
| 20260507002532 | 13 | 73 | 3.2 | 11.3 | 0.00 | 0.00 | 0.00 | 77 | 1017.3 |
| 20260507002031 | 13 | 61 | 4.8 | 11.3 | 0.00 | 0.00 | 0.00 | 76 | 1017.4 |
| 20260507001550 | 13 | 59 | 4.8 | 8.0 | 0.00 | 0.00 | 0.00 | 75 | 1017.3 |
| 20260507001029 | 13 | 63 | 3.2 | 8.0 | 0.00 | 0.00 | 0.00 | 74 | 1017.2 |
| 20260507000531 | 13 | 70 | 3.2 | 6.4 | 0.00 | 0.00 | 0.00 | 74 | 1017.2 |
| 20260507000046 | 13 | 67 | 3.2 | 9.7 | 0.00 | 0.00 | 0.00 | 74 | 1017.3 |
| 20260506235530 | 13 | 67 | 3.2 | 9.7 | 0.00 | 0.00 | 0.00 | 74 | 1017.3 |
| 20260506235030 | 13 | 68 | 3.2 | 9.7 | 0.00 | 0.00 | 0.00 | 74 | 1017.4 |
| 20260506234543 | 13 | 63 | 3.2 | 8.0 | 0.00 | 0.00 | 0.00 | 74 | 1017.5 |
| 20260506234029 | 13 | 64 | 3.2 | 9.7 | 0.00 | 0.00 | 0.00 | 74 | 1017.6 |
| 20260506233530 | 13 | 78 | 4.8 | 9.7 | 0.00 | 0.00 | 0.00 | 75 | 1017.7 |
| 20260506233041 | 13 | 51 | 4.8 | 8.0 | 0.00 | 0.00 | 0.00 | 73 | 1017.6 |
| 20260506232529 | 13 | 74 | 3.2 | 6.4 | 0.00 | 0.00 | 0.00 | 69 | 1017.6 |
| 20260506232029 | 13 | 76 | 3.2 | 6.4 | 0.00 | 0.00 | 0.00 | 66 | 1017.6 |
| 20260506231542 | 13 | 76 | 3.2 | 8.0 | 0.00 | 0.00 | 0.00 | 65 | 1017.7 |
| 20260506231032 | 13 | 76 | 3.2 | 8.0 | 0.00 | 0.00 | 0.00 | 67 | 1017.5 |
| 20260506230529 | 13 | 78 | 3.2 | 8.0 | 0.00 | 0.00 | 0.00 | 68 | 1017.6 |
| 20260506230053 | 13 | 73 | 3.2 | 6.4 | 0.00 | 0.00 | 0.00 | 69 | 1017.6 |
| 20260506225530 | 12 | 74 | 3.2 | 6.4 | 0.00 | 0.00 | 0.00 | 70 | 1017.7 |
| 20260506225031 | 12 | 64 | 3.2 | 4.8 | 0.00 | 0.00 | 0.00 | 71 | 1017.8 |
| 20260506224545 | 12 | 0 | 0.0 | 4.8 | 0.00 | 0.00 | 0.00 | 72 | 1017.8 |
| 20260506224028 | 12 | 59 | 1.6 | 6.4 | 0.00 | 0.00 | 0.00 | 73 | 1017.7 |
| 20260506223529 | 12 | 59 | 0.0 | 6.4 | 0.00 | 0.00 | 0.00 | 74 | 1017.7 |
| 20260506223046 | 12 | 59 | 1.6 | 4.8 | 0.00 | 0.00 | 0.00 | 73 | 1017.8 |
| 20260506222531 | 12 | 62 | 0.0 | 3.2 | 0.00 | 0.00 | 0.00 | 73 | 1017.9 |
| 20260506222029 | 12 | 0 | 0.0 | 1.6 | 0.00 | 0.00 | 0.00 | 71 | 1017.9 |
| 20260506221544 | 12 | 0 | 0.0 | 1.6 | 0.00 | 0.00 | 0.00 | 70 | 1018.0 |
| 20260506221034 | 12 | 0 | 0.0 | 0.0 | 0.00 | 0.00 | 0.00 | 70 | 1018.0 |
| 20260506220529 | 12 | 0 | 0.0 | 0.0 | 0.00 | 0.00 | 0.00 | 69 | 1018.0 |
| 20260506220044 | 12 | 0 | 0.0 | 0.0 | 0.00 | 0.00 | 0.00 | 69 | 1018.1 |
| 20260506215531 | 12 | 0 | 0.0 | 0.0 | 0.00 | 0.00 | 0.00 | 68 | 1018.0 |
| 20260506215029 | 12 | 0 | 0.0 | 0.0 | 0.00 | 0.00 | 0.00 | 69 | 1018.0 |
| 20260506214540 | 12 | 0 | 0.0 | 0.0 | 0.00 | 0.00 | 0.00 | 69 | 1018.0 |
| 20260506214031 | 12 | 0 | 0.0 | 0.0 | 0.00 | 0.00 | 0.00 | 70 | 1018.0 |
| 20260506213531 | 13 | 0 | 0.0 | 0.0 | 0.00 | 0.00 | 0.00 | 70 | 1018.0 |
| 20260506213045 | 13 | 0 | 0.0 | 0.0 | 0.00 | 0.00 | 0.00 | 70 | 1018.0 |
| 20260506212531 | 13 | 0 | 0.0 | 3.2 | 0.00 | 0.00 | 0.00 | 70 | 1018.0 |
| 20260506212031 | 13 | 0 | 0.0 | 3.2 | 0.00 | 0.00 | 0.00 | 71 | 1018.0 |
| 20260506211546 | 13 | 55 | 0.0 | 3.2 | 0.00 | 0.00 | 0.00 | 71 | 1018.0 |
| 20260506211030 | 13 | 0 | 0.0 | 3.2 | 0.00 | 0.00 | 0.00 | 71 | 1018.0 |
| 20260506210532 | 13 | 0 | 0.0 | 4.8 | 0.00 | 0.00 | 0.00 | 71 | 1017.9 |
| 20260506210049 | 13 | 0 | 1.6 | 8.0 | 0.00 | 0.00 | 0.00 | 70 | 1017.9 |
| 20260506205531 | 13 | 55 | 3.2 | 8.0 | 0.00 | 0.00 | 0.00 | 69 | 1018.0 |
| 20260506205030 | 12 | 49 | 1.6 | 6.4 | 0.00 | 0.00 | 0.00 | 71 | 1017.9 |
| 20260506204542 | 12 | 0 | 0.0 | 0.0 | 0.00 | 0.00 | 0.00 | 72 | 1017.9 |
| 20260506204029 | 13 | 0 | 0.0 | 0.0 | 0.00 | 0.00 | 0.00 | 72 | 1017.9 |
| 20260506203532 | 13 | 0 | 0.0 | 0.0 | 0.00 | 0.00 | 0.00 | 72 | 1017.9 |
| 20260506203051 | 13 | 0 | 0.0 | 0.0 | 0.00 | 0.00 | 0.00 | 72 | 1017.8 |
| 20260506202529 | 13 | 0 | 0.0 | 0.0 | 0.00 | 0.00 | 0.00 | 72 | 1018.0 |
| 20260506202029 | 13 | 0 | 0.0 | 0.0 | 0.00 | 0.00 | 0.00 | 73 | 1018.0 |
| 20260506201604 | 13 | 0 | 0.0 | 0.0 | 0.00 | 0.00 | 0.00 | 72 | 1018.0 |
| 20260506201032 | 13 | 0 | 0.0 | 0.0 | 0.00 | 0.00 | 0.00 | 72 | 1017.9 |
| 20260506200529 | 13 | 0 | 0.0 | 0.0 | 0.00 | 0.00 | 0.00 | 72 | 1017.9 |
| 20260506200046 | 13 | 0 | 0.0 | 0.0 | 0.00 | 0.00 | 0.00 | 72 | 1017.9 |
| 20260506195531 | 13 | 0 | 0.0 | 0.0 | 0.00 | 0.00 | 0.00 | 73 | 1017.8 |
| 20260506195032 | 13 | 0 | 0.0 | 1.6 | 0.00 | 0.00 | 0.00 | 73 | 1017.8 |
| 20260506194551 | 13 | 0 | 0.0 | 1.6 | 0.00 | 0.00 | 0.00 | 74 | 1017.7 |
| 20260506194030 | 13 | 0 | 0.0 | 1.6 | 0.00 | 0.00 | 0.00 | 74 | 1017.8 |
| 20260506193530 | 13 | 0 | 0.0 | 0.0 | 0.00 | 0.00 | 0.00 | 74 | 1017.7 |
| 20260506193045 | 13 | 0 | 0.0 | 0.0 | 0.00 | 0.00 | 0.00 | 74 | 1017.7 |